Dewpoint
2 3 4 3 2 1 1 2 2 1 -1 1 2 2 1 -0 -1 -2 -2 -0 -0 1 1 2 3 3 4 5 6 7 8 10 11 12 13 13 10 11 12 13 13 13 13 13
3 4 2 1 1 2 3 3 3 2 0 1 2 2 -1 -3 -3 -2 -2 -1 0 1 -0 0 1 2 2 3 4 4 5 6 7 7 11 11 12 12 12 12 11 12 12 13
4 3 1 1 2 3 4 4 3 3 1 1 2 1 -1 -2 -2 -1 -1 -0 0 0 -1 -2 -1 1 1 2 4 3 4 5 3 -2 6 7 9 10 10 9 10 11 12 12
3 2 2 2 3 3 5 2 2 3 4 4 -1 2 -1 -0 -0 -1 -1 -0 -0 -1 -2 -2 -2 -0 0 0 1 2 3 3 3 -1 4 5 5 5 6 7 7 4 7 10
4 3 3 3 2 1 3 2 2 2 2 2 1 1 -1 -2 -0 -1 -0 0 -0 -0 -0 -1 -1 -1 -0 2 2 2 1 1 2 1 -3 -2 4 4 5 5 6 7 7 8
2 1 1 1 1 1 1 2 2 1 1 4 1 1 -1 -2 -3 -1 -0 -0 -0 0 0 -0 -0 0 -1 -1 -0 1 1 -0 -1 1 2 3 3 3 4 5 5 5 6 6
4 3 0 -0 2 0 1 2 5 6 5 5 -1 -1 -1 -0 -1 -1 -0 -0 1 1 1 2 0 -3 -4 -3 -3 -2 -3 -2 -1 -1 1 2 3 3 4 4 4 5 5 6
7 7 3 -1 0 1 1 1 6 8 5 3 -1 1 -1 -0 -1 -0 -0 -0 1 -1 -3 -3 -4 -4 -4 -4 -3 -4 -4 -3 -3 -2 -0 1 3 3 2 3 4 5 6 6
6 5 0 -0 -0 -0 1 3 -0 3 3 5 2 2 2 1 1 0 -2 -4 -4 -4 -4 -5 -5 -5 -5 -5 -6 -5 -4 -3 -2 -2 0 2 3 4 4 4 5 6 6 6
0 4 -1 0 -1 -1 -0 -1 4 3 7 6 0 -1 -3 3 2 -2 -4 -4 -4 -5 -6 -6 -7 -8 -8 -8 -6 -5 -4 -3 -2 -1 1 1 2 3 4 4 5 6 6 5
-1 1 2 0 1 1 1 2 1 2 5 5 3 -1 1 3 2 -2 -3 -4 -5 -7 -9 -9 -8 -8 -8 -8 -7 -5 -5 -3 -2 -1 -0 1 3 4 4 5 5 5 5 5
-1 0 4 2 -2 -3 -2 0 2 8 7 5 3 0 -2 -1 -2 -3 -5 -7 -8 -10 -11 -10 -10 -11 -10 -10 -10 -8 -6 -6 -5 -5 -3 -2 -1 1 2 3 3 2 2 2
-0 3 4 4 1 -1 1 -0 -0 2 5 5 7 1 -2 -3 -4 -6 -9 -9 -11 -12 -12 -12 -12 -12 -11 -10 -10 -9 -9 -9 -8 -8 -8 -6 -5 -4 -3 -2 -1 1 2 2
-0 2 4 6 2 -0 2 0 -0 1 8 5 3 -1 -4 -5 -5 -10 -10 -11 -13 -14 -14 -13 -13 -13 -13 -12 -12 -10 -10 -10 -9 -9 -9 -8 -8 -7 -5 -4 -5 -5 -1 0
1 5 3 3 1 -1 -2 0 -1 1 3 5 0 -2 -4 -8 -9 -11 -13 -14 -14 -15 -15 -15 -14 -14 -15 -14 -14 -13 -12 -12 -11 -10 -9 -9 -8 -9 -8 -8 -6 -6 -3 1
2 7 3 4 -2 -3 -3 -4 -2 -2 -2 -2 -3 -3 -8 -10 -14 -16 -16 -15 -15 -16 -16 -16 -16 -15 -14 -14 -13 -12 -12 -11 -11 -10 -9 -9 -9 -9 -9 -9 -8 -8 -9 -6
4 5 4 5 0 -1 2 -1 -2 -3 -4 -3 -2 -5 -10 -14 -16 -16 -14 -15 -16 -15 -15 -15 -14 -14 -12 -11 -11 -11 -11 -11 -11 -10 -9 -10 -10 -11 -10 -10 -11 -9 -7 -5
3 3 4 6 -1 4 -2 -9 -7 -3 -5 -6 -7 -12 -16 -17 -16 -15 -16 -16 -16 -14 -12 -10 -9 -9 -9 -8 -8 -8 -7 -7 -7 -8 -10 -9 -9 -9 -9 -9 -10 -8 -6 -4
1 3 4 4 2 -2 -8 -11 -11 -10 -9 -11 -14 -17 -18 -16 -16 -16 -16 -12 -9 -9 -8 -8 -8 -7 -7 -7 -7 -7 -7 -7 -6 -6 -6 -7 -8 -7 -7 -6 -5 -4 -2 0
0 -0 1 3 5 3 -8 -10 -16 -16 -10 -16 -17 -14 -14 -15 -13 -15 -11 -9 -9 -9 -8 -7 -7 -7 -7 -7 -6 -6 -6 -5 -5 -5 -4 -4 -4 -4 -3 -2 -2 -0 -1 -7
0 3 4 1 1 -4 -13 -14 -15 -13 -9 -11 -12 -13 -14 -12 -11 -8 -7 -10 -12 -11 -9 -7 -6 -6 -6 -5 -5 -5 -5 -5 -4 -4 -3 -2 -2 -1 -1 -3 -2 -1 -4 -5
0 0 1 0 1 0 -14 -12 -12 -10 -9 -11 -12 -13 -11 -8 -7 -7 -11 -13 -11 -11 -10 -8 -6 -5 -5 -5 -5 -4 -4 -4 -3 -3 -3 -2 -2 -1 -2 -2 -2 -2 -3 -4
-2 -3 -3 -4 -4 -10 -12 -11 -12 -12 -13 -13 -11 -9 -7 -6 -9 -12 -12 -11 -11 -10 -9 -6 -5 -5 -4 -4 -3 -3 -3 -2 -3 -2 -3 -3 -3 -3 -3 -4 -2 -1 -2 -2
-8 -10 -6 -8 -10 -11 -12 -13 -12 -14 -12 -11 -7 -6 -8 -11 -11 -11 -11 -11 -11 -9 -6 -5 -5 -4 -4 -3 -3 -3 -3 -4 -3 -3 -2 -3 -3 -3 -2 -1 -2 -2 -2 -2
-9 -10 -9 -10 -14 -14 -13 -12 -15 -13 -8 -5 -7 -10 -12 -11 -11 -11 -11 -10 -10 -7 -5 -4 -4 -4 -3 -4 -4 -3 -3 -3 -3 -3 -3 -2 -2 -2 -2 -2 -2 -2 -2 -3
-12 -9 -7 -8 -12 -13 -14 -14 -12 -7 -6 -8 -11 -12 -11 -11 -11 -11 -10 -10 -8 -6 -5 -4 -4 -4 -4 -4 -4 -4 -4 -4 -4 -3 -3 -2 -2 -2 -2 -2 -2 -3 -3 -4
Wind_Speed
19 14 19 22 20 21 18 15 16 13 8 12 13 17 18 17 15 13 12 11 8 8 7 8 9 10 11 13 13 12 10 10 6 3 5 8 10 11 13 17 19 20 24 31
11 21 21 19 18 17 18 18 19 17 15 12 15 18 18 15 10 8 7 12 12 11 8 7 7 8 9 9 9 9 9 9 8 6 7 7 10 11 12 15 16 20 24 33
20 11 17 19 17 15 16 17 16 17 15 14 18 22 22 7 7 8 11 13 13 10 8 6 5 6 7 8 8 8 9 9 10 9 6 7 8 10 13 16 17 19 20 22
18 22 10 13 19 16 17 16 17 15 14 11 5 7 4 15 14 13 15 15 12 9 7 5 4 5 6 8 8 9 9 9 10 13 9 10 9 9 10 12 14 18 24 26
17 15 19 17 18 16 16 13 9 13 15 17 18 10 18 20 18 14 14 14 11 8 5 4 3 4 4 6 7 9 10 10 11 12 13 13 10 11 11 11 13 13 13 14
22 12 13 17 16 13 5 9 13 14 12 14 19 16 11 11 14 20 15 13 10 6 3 1 2 4 5 6 9 10 11 12 13 14 13 14 15 14 14 13 13 12 13 12
19 21 12 11 11 10 15 11 6 9 9 12 3 8 15 12 12 16 15 12 8 4 1 3 5 7 7 9 11 13 13 15 16 17 17 17 17 16 16 14 13 13 12 12
16 13 24 17 21 12 17 17 8 5 8 9 9 7 5 15 15 14 13 10 5 2 4 6 9 12 15 17 18 18 19 20 20 20 21 20 19 19 18 17 15 14 14 14
17 13 5 7 16 20 16 18 18 19 17 12 11 9 9 14 14 16 13 10 5 1 7 12 15 17 19 21 22 23 24 24 22 22 22 22 22 22 23 21 19 17 15 15
5 8 7 10 7 17 21 9 9 10 6 12 11 15 10 17 14 12 10 5 2 7 12 15 18 20 22 22 21 20 20 21 21 20 20 20 22 23 24 23 22 19 18 18
8 10 11 11 16 16 13 15 13 10 11 5 9 3 9 16 15 11 5 2 8 14 18 19 19 19 21 21 21 22 21 20 19 18 18 18 18 18 20 22 22 20 20 20
14 7 10 17 7 12 13 20 18 7 6 8 7 7 10 12 12 8 5 6 12 16 17 18 19 20 19 20 22 22 21 22 19 19 19 18 19 19 19 20 19 18 20 21
15 9 9 6 10 12 14 20 21 18 4 17 11 3 10 10 8 10 9 13 15 17 18 19 19 19 19 22 23 21 19 20 22 21 23 22 22 20 19 20 25 23 22 22
10 8 13 13 7 5 24 21 20 18 10 16 20 21 14 12 12 14 15 15 16 19 21 19 20 21 23 23 23 24 22 23 25 24 25 25 25 24 25 24 29 29 29 27
10 12 19 20 14 11 13 24 22 23 21 18 17 23 13 14 16 14 15 16 18 21 22 23 24 26 27 27 28 28 29 29 29 30 30 29 28 28 28 28 23 26 27 24
9 4 12 15 8 8 13 13 18 22 20 19 20 21 15 18 11 13 16 17 20 23 24 25 25 25 27 29 29 31 32 34 33 33 33 33 33 35 34 31 30 29 27 29
12 8 9 9 11 9 13 20 19 18 17 18 17 17 11 9 12 13 15 19 22 23 24 24 27 29 31 32 32 34 34 34 35 37 37 37 38 39 37 37 34 31 27 29
13 14 6 5 9 8 3 1 13 24 21 18 17 11 11 13 13 13 16 23 22 20 24 30 33 34 35 36 36 37 37 38 38 38 36 34 34 35 35 35 34 28 28 30
11 7 4 5 12 9 6 7 8 13 15 11 10 11 12 9 14 18 19 12 19 24 27 29 31 33 34 35 35 36 37 36 37 37 38 39 35 33 29 30 30 27 27 27
13 12 7 6 6 8 5 16 10 5 9 13 9 6 6 9 11 10 16 20 23 24 25 28 29 30 31 32 32 33 35 35 36 37 35 34 34 32 25 24 27 24 26 32
13 9 12 9 7 6 13 14 14 7 2 13 9 7 9 10 14 19 21 23 23 24 25 26 28 30 31 30 31 33 35 38 38 36 35 32 29 25 26 36 32 30 33 35
12 11 8 9 11 14 18 16 11 8 11 7 6 8 10 12 15 18 22 23 24 25 25 25 26 28 29 27 27 31 35 35 34 34 35 33 31 25 27 27 31 34 35 35
8 8 8 9 9 3 21 14 12 7 3 4 6 8 10 13 15 18 21 22 23 23 24 24 26 29 28 26 29 34 36 33 32 31 33 33 32 32 34 36 34 32 32 34
11 13 4 7 7 11 19 13 8 5 6 5 6 8 9 13 15 17 19 20 21 21 22 24 27 27 27 27 30 31 31 29 30 29 29 28 27 27 29 26 25 25 26 27
7 12 11 12 6 13 18 16 10 9 6 5 5 5 8 10 12 14 16 18 19 20 21 23 24 25 26 27 31 28 27 26 25 27 25 23 26 24 18 20 22 23 23 22
9 10 11 7 14 14 14 16 8 9 8 6 4 4 6 8 10 12 14 16 17 19 20 22 24 24 25 26 30 28 25 24 26 26 23 20 22 20 19 23 24 22 23 21
Wind_Direction
205 211 221 228 222 253 276 284 275 272 265 263 253 253 260 255 255 245 209 201 184 158 128 98 79 63 49 45 44 42 40 45 44 1 316 308 314 306 287 278 278 282 278 269
185 227 235 235 250 237 242 257 261 272 272 276 276 265 265 258 272 296 194 170 166 161 136 110 89 71 56 43 36 27 21 17 21 0 338 308 287 287 288 289 282 276 279 267
226 231 231 242 236 236 244 251 263 269 288 285 272 264 266 143 136 140 140 150 155 152 142 120 86 57 47 35 30 24 14 5 350 359 335 316 310 306 298 284 279 274 275 273
230 244 212 236 230 231 244 242 250 267 267 267 142 284 147 158 147 152 148 155 153 150 129 103 76 41 33 17 6 360 354 345 339 339 337 330 322 310 299 303 298 289 280 278
220 226 227 227 229 227 253 269 265 262 267 272 260 253 255 179 169 163 159 151 149 135 127 99 61 22 5 349 344 334 329 320 317 319 315 310 303 303 305 301 296 298 292 288
243 201 232 243 235 235 225 259 249 253 254 255 248 239 251 219 201 148 149 154 145 134 121 69 29 356 343 341 333 326 315 307 304 298 296 294 291 294 295 292 298 295 298 297
213 236 217 234 210 202 219 220 242 222 222 239 249 222 227 105 104 141 152 145 149 162 232 309 336 339 335 332 332 325 315 305 298 289 285 281 278 278 278 280 284 289 298 301
211 211 210 188 219 194 209 215 214 251 256 296 105 216 142 108 116 116 130 139 144 90 15 334 328 326 320 316 314 310 305 299 292 282 276 273 271 272 271 272 272 282 287 291
188 219 172 203 206 228 203 219 239 266 268 268 258 114 126 144 139 138 135 139 128 37 334 327 324 316 309 306 306 306 301 295 292 287 280 275 271 270 268 268 268 271 275 288
219 197 223 152 230 228 241 221 209 231 241 239 230 227 242 163 158 144 141 120 25 325 320 313 311 310 310 309 308 306 306 297 291 291 292 289 284 277 273 268 266 267 268 276
214 232 174 163 206 200 201 225 218 242 212 256 276 250 101 154 155 154 130 268 315 323 317 314 310 309 307 304 304 305 304 301 299 300 298 299 298 292 284 276 273 275 276 278
210 222 183 203 233 240 235 214 207 215 208 224 272 280 127 131 139 166 228 307 328 318 315 312 311 308 308 309 309 304 302 300 303 304 303 302 301 300 298 290 276 289 290 288
182 207 201 257 202 228 230 219 217 217 216 232 228 173 133 137 181 224 333 339 320 313 313 312 309 308 307 308 309 307 308 306 300 299 301 299 300 300 299 305 313 305 301 295
174 194 210 220 213 268 212 223 218 224 223 233 238 251 228 248 255 335 335 320 308 308 305 303 304 309 308 308 308 308 301 302 302 300 296 298 302 302 295 294 295 294 294 292
172 220 223 240 274 262 256 214 220 223 223 239 255 261 280 300 308 328 313 300 302 305 309 306 304 304 303 303 302 299 296 295 293 290 290 291 291 291 293 295 288 286 294 286
199 230 240 235 202 253 251 235 228 229 234 235 252 261 280 288 307 300 301 304 305 308 305 303 303 305 305 304 303 301 296 292 291 288 287 287 287 288 288 287 288 292 282 286
184 169 180 215 210 233 260 230 231 232 233 239 249 271 283 291 286 296 311 299 299 300 299 306 308 306 305 304 301 298 296 295 292 288 286 287 288 286 285 285 284 282 286 289
190 181 176 162 150 222 224 349 240 232 236 235 241 255 272 274 292 298 295 296 296 311 311 308 306 304 302 300 298 297 294 293 290 288 287 285 289 291 287 286 281 281 287 287
191 162 154 181 211 293 220 195 195 210 221 209 237 248 262 282 292 289 284 314 321 310 305 304 305 305 304 303 302 299 296 295 294 293 289 286 285 284 286 291 293 290 285 282
188 194 201 189 215 230 7 161 170 130 241 217 216 221 238 283 277 288 326 320 310 306 305 308 309 308 306 304 302 299 297 298 296 296 295 294 293 286 282 287 286 279 278 289
189 199 209 202 225 252 138 126 147 199 135 133 163 203 264 271 284 303 306 305 304 307 308 307 305 307 306 304 301 299 299 298 298 297 294 292 292 286 287 287 283 277 284 287
176 184 196 215 215 237 171 156 194 108 134 161 216 257 273 279 286 293 298 304 308 308 307 308 309 310 308 304 303 303 302 302 299 294 293 290 289 287 292 290 289 285 287 287
200 204 194 198 216 91 174 171 174 140 189 237 264 280 284 291 294 301 306 309 309 309 310 313 312 311 310 307 307 306 305 303 300 296 291 294 295 294 289 291 289 286 286 288
218 197 217 174 202 168 174 159 170 203 212 238 259 276 287 297 308 311 310 309 313 315 317 318 316 313 314 317 314 312 313 310 309 301 299 297 295 291 294 292 292 290 291 293
179 171 202 207 169 183 188 197 208 200 198 230 234 271 297 304 305 306 308 314 317 318 320 320 319 318 319 326 333 328 320 315 306 300 298 294 296 301 296 301 301 296 293 290
175 188 206 212 201 197 205 217 191 190 214 206 238 280 290 295 299 309 314 321 324 322 325 326 325 322 320 332 337 340 336 324 313 312 308 302 298 304 302 306 302 297 294 290
Height
1486 1486 1477 1473 1472 1470 1467 1468 1468 1460 1459 1465 1467 1468 1465 1464 1466 1468 1471 1483 1490 1495 1497 1496 1496 1496 1497 1496 1497 1496 1495 1495 1495 1496 1495 1493 1490 1489 1488 1489 1491 1491 1492 1492
1477 1475 1467 1467 1465 1467 1472 1474 1470 1464 1463 1466 1468 1464 1459 1458 1461 1465 1467 1480 1488 1493 1494 1495 1494 1494 1496 1496 1497 1499 1498 1495 1494 1494 1493 1491 1490 1488 1488 1487 1486 1486 1487 1486
1466 1462 1463 1464 1464 1472 1471 1473 1471 1470 1463 1462 1464 1460 1448 1457 1465 1470 1474 1481 1487 1491 1493 1495 1495 1496 1497 1497 1496 1496 1496 1495 1492 1490 1490 1489 1488 1486 1484 1481 1481 1480 1480 1480
1460 1461 1465 1465 1465 1468 1471 1464 1467 1471 1473 1473 1458 1465 1445 1458 1466 1471 1477 1483 1487 1490 1493 1494 1495 1496 1496 1496 1496 1495 1494 1494 1491 1489 1488 1487 1486 1485 1482 1481 1478 1476 1474 1473
1456 1458 1458 1464 1461 1462 1465 1463 1469 1471 1470 1466 1458 1462 1442 1440 1459 1467 1476 1481 1486 1490 1493 1494 1495 1497 1497 1496 1495 1494 1494 1492 1492 1489 1487 1485 1483 1481 1479 1477 1475 1473 1470 1467
1451 1455 1457 1455 1458 1462 1466 1469 1471 1468 1467 1469 1454 1454 1441 1430 1439 1458 1475 1482 1488 1491 1493 1494 1494 1495 1495 1495 1494 1493 1493 1491 1489 1487 1485 1482 1480 1477 1476 1473 1471 1469 1466 1463
1454 1452 1456 1457 1459 1461 1464 1471 1475 1473 1471 1463 1433 1442 1438 1444 1448 1460 1473 1481 1487 1490 1491 1492 1492 1493 1493 1494 1493 1492 1490 1488 1486 1484 1481 1478 1476 1473 1471 1469 1466 1463 1460 1456
1448 1453 1445 1449 1451 1454 1458 1459 1469 1476 1455 1444 1439 1454 1438 1451 1462 1467 1474 1481 1486 1489 1491 1492 1491 1491 1491 1491 1489 1488 1486 1484 1480 1478 1475 1473 1470 1468 1466 1463 1460 1457 1454 1451
1431 1436 1433 1443 1448 1449 1449 1459 1451 1457 1452 1461 1446 1444 1456 1459 1465 1469 1476 1480 1484 1488 1490 1491 1490 1490 1489 1488 1486 1485 1482 1479 1475 1473 1470 1466 1463 1462 1460 1457 1454 1451 1448 1447
1426 1437 1439 1444 1449 1447 1444 1445 1462 1460 1474 1464 1432 1427 1421 1455 1464 1469 1475 1480 1485 1487 1488 1488 1488 1488 1487 1485 1484 1481 1478 1474 1470 1468 1465 1461 1459 1456 1454 1452 1449 1446 1443 1442
1426 1428 1443 1444 1446 1442 1449 1451 1446 1447 1454 1461 1447 1431 1438 1450 1461 1469 1476 1481 1483 1485 1485 1485 1484 1483 1482 1480 1478 1476 1473 1470 1467 1464 1461 1458 1455 1452 1449 1447 1444 1441 1438 1436
1428 1433 1442 1440 1432 1434 1433 1441 1443 1456 1460 1456 1454 1447 1448 1455 1465 1472 1473 1475 1480 1483 1483 1481 1480 1478 1478 1476 1474 1471 1468 1466 1463 1460 1457 1454 1451 1447 1444 1441 1437 1436 1434 1432
1424 1435 1443 1447 1439 1440 1437 1430 1435 1442 1459 1452 1459 1445 1450 1458 1464 1465 1466 1472 1477 1478 1477 1477 1477 1475 1473 1471 1468 1465 1463 1461 1459 1457 1454 1451 1448 1445 1442 1438 1434 1432 1430 1427
1423 1427 1428 1424 1418 1418 1433 1430 1431 1434 1453 1450 1436 1438 1441 1443 1449 1456 1465 1472 1474 1475 1474 1473 1472 1471 1469 1467 1464 1460 1458 1456 1454 1452 1450 1447 1444 1441 1439 1435 1433 1429 1427 1424
1425 1433 1428 1424 1420 1428 1418 1425 1425 1432 1440 1446 1441 1432 1438 1445 1451 1459 1466 1469 1470 1470 1470 1469 1468 1466 1463 1460 1458 1455 1453 1450 1448 1446 1443 1439 1437 1435 1432 1430 1427 1425 1421 1417
1432 1437 1428 1432 1432 1435 1430 1423 1422 1426 1430 1435 1441 1439 1446 1447 1454 1461 1464 1466 1466 1467 1466 1464 1462 1460 1457 1454 1451 1449 1446 1444 1441 1437 1434 1432 1429 1427 1424 1421 1418 1416 1412 1411
1433 1439 1441 1439 1440 1441 1442 1432 1430 1431 1432 1437 1441 1442 1444 1449 1456 1460 1463 1466 1465 1464 1461 1458 1456 1454 1452 1448 1446 1443 1439 1436 1433 1429 1426 1423 1420 1417 1414 1412 1409 1407 1404 1403
1430 1434 1440 1441 1446 1452 1417 1423 1422 1427 1428 1434 1438 1445 1450 1452 1456 1461 1464 1463 1460 1458 1457 1455 1452 1448 1445 1442 1439 1435 1431 1427 1424 1420 1417 1414 1411 1408 1405 1403 1400 1398 1398 1396
1431 1435 1442 1443 1438 1415 1423 1428 1428 1426 1426 1432 1438 1445 1449 1454 1458 1460 1460 1458 1458 1458 1455 1451 1447 1443 1440 1436 1432 1428 1424 1420 1416 1412 1408 1406 1403 1400 1398 1396 1393 1391 1391 1389
1430 1431 1430 1442 1436 1426 1410 1415 1429 1434 1438 1434 1439 1447 1453 1457 1455 1451 1455 1458 1457 1454 1451 1446 1442 1439 1435 1430 1427 1423 1418 1414 1409 1406 1402 1399 1397 1393 1390 1388 1388 1386 1383 1380
1426 1432 1431 1430 1428 1416 1415 1427 1434 1439 1433 1438 1445 1451 1455 1455 1454 1453 1454 1453 1452 1449 1445 1442 1439 1434 1430 1426 1422 1417 1413 1408 1403 1399 1395 1392 1389 1387 1384 1381 1381 1378 1374 1371
1417 1424 1427 1427 1431 1428 1419 1429 1431 1430 1437 1444 1448 1451 1453 1453 1453 1452 1451 1448 1445 1444 1442 1439 1433 1429 1425 1422 1417 1410 1405 1401 1396 1391 1387 1384 1382 1380 1378 1375 1373 1369 1366 1362
1411 1408 1409 1412 1410 1414 1416 1422 1429 1433 1438 1443 1446 1448 1449 1449 1450 1448 1447 1444 1443 1440 1437 1434 1429 1425 1421 1417 1411 1402 1397 1393 1388 1383 1379 1377 1375 1373 1371 1367 1363 1360 1357 1354
1404 1405 1411 1412 1413 1414 1419 1424 1430 1433 1437 1441 1444 1446 1447 1448 1446 1444 1443 1442 1440 1437 1432 1428 1424 1420 1415 1410 1403 1397 1389 1385 1380 1376 1373 1370 1368 1365 1363 1359 1356 1353 1350 1346
1396 1403 1408 1408 1411 1416 1418 1422 1427 1430 1435 1439 1442 1443 1444 1444 1443 1443 1442 1440 1437 1433 1428 1424 1419 1414 1408 1402 1396 1390 1385 1380 1375 1371 1367 1365 1362 1359 1356 1354 1351 1347 1344 1342
1393 1398 1402 1403 1409 1413 1416 1420 1424 1429 1432 1435 1438 1439 1441 1441 1441 1440 1438 1436 1433 1429 1423 1419 1414 1408 1403 1398 1392 1386 1381 1376 1371 1366 1362 1360 1357 1355 1352 1349 1345 1342 1339 1336